Quincy, IL

9:58 AM CDT on June 26, 2017 (GMT -0500)
Quincy Regional-Baldwin

Weather History for KUIN - June, 2012

Change the Weather History Date:

Thursday, June 14, 2012

  Actual Average Record
Temperature  
Mean Temperature 72 °F 72 °F  
Max Temperature 87 °F 82 °F 99 °F (1922)
Min Temperature 57 °F 62 °F 43 °F (1942)
Degree Days  
Heating Degree Days 0 0  
Month to date heating degree days 14  
Since 1 June heating degree days 14  
Since 1 July heating degree days 5580  
Cooling Degree Days 6 7  
Month to date cooling degree days 81  
Year to date cooling degree days 167  
Since 1 June cooling degree days 81  
Growing Degree Days 22 (Base 50)    
Moisture  
Dew Point 53 °F    
Average Humidity 50    
Maximum Humidity 75    
Minimum Humidity 32    
Precipitation  
Precipitation 0.00 in 0.13 in 5.84 in (1950)
Month to date precipitation 1.96  
Year to date precipitation 16.05  
Sea Level Pressure  
Sea Level Pressure 30.00 in    
Wind  
Wind Speed 9 mph (SSE)    
Max Wind Speed 16 mph    
Max Gust Speed 21 mph    
Visibility 10 miles    
Events      
T = Trace of Precipitation, MM = Missing Value Source: NWS Daily Summary

Daily Weather History Graph

Daily Weather History Graph

Search for Another Location

Airport or City:

Trip Planner

Search our weather history database for the weather conditions in past years. The results will help you decide how hot, cold, wet, or windy it might be!

Date:

Astronomy

Jun. 14, 2012 Rise Set
Actual Time 5:35 AM CDT 8:34 PM CDT
Civil Twilight 5:02 AM CDT 9:07 PM CDT
Nautical Twilight 4:21 AM CDT 9:49 PM CDT
Astronomical Twilight 3:32 AM CDT 10:37 PM CDT
Moon 2:17 AM CDT (6/14) 4:18 PM CDT (6/14)
Length of Visible Light 16h 04m
Length of Day
14h 59m
Waning Crescent, 21% of the Moon is Illuminated
Jun 14
Waning Crescent
Jun 19
New
Jun 26
First Quarter
Jul 3
Full
Jul 10
Last Quarter

Hourly Weather History & Observations

Time (CDT) Temp. Heat Index Dew Point Humidity Pressure Visibility Wind Dir Wind Speed Gust Speed Precip Events Conditions
12:54 AM 63.0 °F - 48.9 °F 60% 30.02 in 10.0 mi ESE 6.9 mph - N/A   Clear
1:54 AM 62.1 °F - 48.9 °F 62% 30.02 in 10.0 mi SE 6.9 mph - N/A   Clear
2:54 AM 62.1 °F - 48.9 °F 62% 30.01 in 10.0 mi SE 6.9 mph - N/A   Clear
3:54 AM 59.0 °F - 50.0 °F 72% 30.01 in 10.0 mi SE 6.9 mph - N/A   Clear
4:54 AM 57.9 °F - 50.0 °F 75% 30.01 in 10.0 mi SE 6.9 mph - N/A   Clear
5:54 AM 57.9 °F - 50.0 °F 75% 30.04 in 10.0 mi ESE 4.6 mph - N/A   Clear
6:54 AM 60.1 °F - 51.1 °F 72% 30.04 in 10.0 mi SE 8.1 mph - N/A   Clear
7:54 AM 68.0 °F - 52.0 °F 56% 30.04 in 10.0 mi SSE 8.1 mph - N/A   Clear
8:54 AM 73.0 °F - 51.1 °F 46% 30.05 in 10.0 mi South 10.4 mph - N/A   Clear
9:54 AM 78.1 °F - 51.1 °F 39% 30.04 in 10.0 mi South 13.8 mph 18.4 mph N/A   Clear
10:54 AM 80.1 °F - 51.1 °F 36% 30.04 in 10.0 mi SSE 11.5 mph 18.4 mph N/A   Clear
11:54 AM 82.0 °F - 52.0 °F 35% 30.04 in 10.0 mi South 12.7 mph - N/A   Clear
12:54 PM 84.0 °F 82.6 °F 54.0 °F 35% 30.02 in 10.0 mi South 9.2 mph 18.4 mph N/A   Clear
1:54 PM 84.9 °F 83.2 °F 53.1 °F 33% 30.01 in 10.0 mi South 15.0 mph 20.7 mph N/A   Clear
2:54 PM 86.0 °F 84.0 °F 53.1 °F 32% 30.01 in 10.0 mi South 16.1 mph - N/A   Clear
3:54 PM 86.0 °F 84.2 °F 54.0 °F 33% 29.99 in 10.0 mi SSE 11.5 mph 18.4 mph N/A   Clear
4:54 PM 86.0 °F 84.2 °F 54.0 °F 33% 29.98 in 10.0 mi SSE 13.8 mph 19.6 mph N/A   Clear
5:54 PM 84.9 °F 83.3 °F 54.0 °F 34% 29.97 in 10.0 mi SSE 11.5 mph 20.7 mph N/A   Clear
6:54 PM 84.0 °F 82.6 °F 54.0 °F 35% 29.96 in 10.0 mi SSE 13.8 mph - N/A   Clear
7:54 PM 80.1 °F 80.4 °F 57.0 °F 45% 29.92 in 10.0 mi SE 10.4 mph - N/A   Clear
8:54 PM 75.9 °F - 57.9 °F 54% 29.89 in 10.0 mi SE 8.1 mph - N/A   Clear
9:54 PM 73.0 °F - 57.0 °F 57% 29.92 in 10.0 mi SE 8.1 mph - N/A   Clear
10:54 PM 69.1 °F - 57.0 °F 65% 29.93 in 10.0 mi SE 6.9 mph - N/A   Clear
11:54 PM 69.1 °F - 57.0 °F 65% 29.94 in 10.0 mi SE 5.8 mph - N/A   Clear